Location: ??????
(41.3164°N, 22.6615°E)
Time: 01:50:22
(UTC+00:00)

CUBESAT XI-V - Pass Details

Date: 08 July 2022
Orbit: 668 x 690 km, 98.1° (Epoch: 15 August)

Event Time Altitude Azimuth Distance (km) Brightness Sun altitude
Exits shadow 00:35:56 48° 219° (SW) 879 ? -20.2°
Maximum altitude 00:36:47 56° 260° (W) 799 ? -20.2°
Drops below altitude 10° 00:41:17 10° 338° (NNW) 2,104 ? -19.7°
Sets 00:43:34 0° 343° (NNW) 3,020 ? -19.5°
